sat.trackr.live / text

‹ back to catalog

QIANFAN-21

NORAD 61554 · 2024-185C

PAYLOAD ACTIVE UNKNOWN

§ Identity

Operator
Country
PRC
Launch date
2024-10-15
Launch site
TAISC
Launch vehicle
Mass (kg)
RCS (m²)

External: N2YO · Heavens-Above · Gunter

§ Orbital elements

Epoch: 2026-05-25T04:52:31.875744Z

Period
101.21 min
Inclination
88.9768°
Eccentricity
0.0010005
Mean motion
14.22826945 rev/d
Perigee alt
808.6 km
Apogee alt
823.0 km
Semi-major
7,193.9 km
B*
2.2577e-4
RAAN
57.8216°
Arg perigee
177.6930°
Mean anomaly
182.4309°
Rev number
9,321

§ Raw data

QIANFAN-211 61554U 24185C   26145.20314671  .00000521  00000+0  22577-3 0  99962 61554  88.9768  57.8216 0010005 177.6930 182.4309 14.22826945 93212

JSON: /api/v1/satellites/61554 · /tle

For live sub-satellite position, see the globe view (requires WebGL).

§ Visibility from observer

Set your observer location to see the next 7 days of passes ≥ 10°. The values pass through the URL so the page stays shareable.

No JS? Fill the form by hand. The geolocation button needs JavaScript.